Galax, VA

2:20 PM EDT on October 22, 2017 (GMT -0400)
Twin County

Weather History for KHLX - February, 2012

Change the Weather History Date:

Tuesday, February 21, 2012

  Actual Average (KBLF) Record (KBLF)
Temperature  
Mean Temperature 38 °F -  
Max Temperature 46 °F 47 °F 65 °F (1996)
Min Temperature 30 °F 29 °F 1 °F (1963)
Degree Days  
Heating Degree Days 27    
Moisture  
Dew Point 30 °F    
Average Humidity 73    
Maximum Humidity 86    
Minimum Humidity 61    
Precipitation  
Precipitation 0.15 in - - ()
Sea Level Pressure  
Sea Level Pressure 30.10 in    
Wind  
Wind Speed 9 mph (South)    
Max Wind Speed 20 mph    
Max Gust Speed 28 mph    
Visibility 10 miles    
Events      
Averages and records for this station are not official NWS values.
T = Trace of Precipitation, MM = Missing Value Source: NWS Daily Summary

Daily Weather History Graph

Daily Weather History Graph

Search for Another Location

Airport or City:

Trip Planner

Search our weather history database for the weather conditions in past years. The results will help you decide how hot, cold, wet, or windy it might be!

Date:

Astronomy

Feb. 21, 2012 Rise Set
Actual Time 7:05 AM EST 6:09 PM EST
Civil Twilight 6:38 AM EST 6:35 PM EST
Nautical Twilight 6:08 AM EST 7:05 PM EST
Astronomical Twilight 5:38 AM EST 7:35 PM EST
Moon 6:33 AM EST (2/21) 6:12 PM EST (2/21)
Length of Visible Light 11h 56m
Length of Day
11h 04m
Waning Crescent, 0% of the Moon is Illuminated
Feb 21
Waning Crescent
Feb 21
New
Feb 29
First Quarter
Mar 8
Full
Mar 14
Last Quarter

Hourly Weather History & Observations

Time (EST) Temp. Windchill Dew Point Humidity Pressure Visibility Wind Dir Wind Speed Gust Speed Precip Events Conditions
12:15 AM 30.2 °F 25.4 °F 24.8 °F 80% 30.25 in 10.0 mi SSE 4.6 mph - N/A   Clear
12:35 AM 32.0 °F 27.5 °F 24.8 °F 75% 30.25 in 10.0 mi SSE 4.6 mph - N/A   Clear
12:55 AM 30.2 °F 24.3 °F 24.8 °F 80% 30.25 in 10.0 mi SSE 5.8 mph - N/A   Clear
1:15 AM 32.0 °F 26.4 °F 24.8 °F 75% 30.25 in 10.0 mi SSE 5.8 mph - N/A   Clear
1:35 AM 30.2 °F 24.3 °F 24.8 °F 80% 30.23 in 10.0 mi SSE 5.8 mph - N/A   Clear
1:55 AM 30.2 °F 23.4 °F 24.8 °F 80% 30.23 in 10.0 mi SSE 6.9 mph - N/A   Clear
2:15 AM 30.2 °F 25.4 °F 24.8 °F 80% 30.22 in 10.0 mi SSE 4.6 mph - N/A   Clear
2:35 AM 30.2 °F 23.4 °F 24.8 °F 80% 30.22 in 10.0 mi South 6.9 mph - N/A   Clear
2:55 AM 30.2 °F 23.4 °F 24.8 °F 80% 30.22 in 10.0 mi SSE 6.9 mph - N/A   Clear
3:15 AM 30.2 °F 26.7 °F 24.8 °F 80% 30.21 in 10.0 mi SSE 3.5 mph - N/A   Clear
3:35 AM 30.2 °F 24.3 °F 24.8 °F 80% 30.20 in 10.0 mi SSE 5.8 mph - N/A   Clear
3:55 AM 30.2 °F 25.4 °F 24.8 °F 80% 30.20 in 10.0 mi South 4.6 mph - N/A   Clear
4:15 AM 30.2 °F 23.4 °F 24.8 °F 80% 30.16 in 10.0 mi SE 6.9 mph - N/A   Clear
4:35 AM 30.2 °F 21.3 °F 24.8 °F 80% 30.18 in 10.0 mi South 10.4 mph 16.1 mph N/A   Clear
4:55 AM 30.2 °F 22.6 °F 24.8 °F 80% 30.18 in 10.0 mi SSE 8.1 mph - N/A   Clear
5:15 AM 30.2 °F 22.6 °F 24.8 °F 80% 30.17 in 10.0 mi South 8.1 mph - N/A   Clear
5:35 AM 30.2 °F 21.9 °F 24.8 °F 80% 30.16 in 10.0 mi SSE 9.2 mph 16.1 mph N/A   Clear
5:55 AM 30.2 °F 23.4 °F 24.8 °F 80% 30.20 in 10.0 mi South 6.9 mph 17.3 mph N/A   Clear
6:15 AM 30.2 °F 22.6 °F 24.8 °F 80% 30.21 in 10.0 mi SSW 8.1 mph - N/A   Clear
6:35 AM 30.2 °F 21.9 °F 26.6 °F 86% 30.20 in 10.0 mi South 9.2 mph - N/A   Clear
7:15 AM 32.0 °F 23.6 °F 26.6 °F 80% 30.18 in 10.0 mi South 10.4 mph 18.4 mph N/A   Clear
7:35 AM 32.0 °F 23.0 °F 26.6 °F 80% 30.18 in 10.0 mi South 11.5 mph 18.4 mph N/A   Clear
7:55 AM 33.8 °F 25.3 °F 26.6 °F 75% 30.20 in 10.0 mi South 11.5 mph 17.3 mph N/A   Clear
8:15 AM 33.8 °F 25.3 °F 26.6 °F 75% 30.20 in 10.0 mi South 11.5 mph - N/A   Clear
8:35 AM 33.8 °F 26.4 °F 26.6 °F 75% 30.19 in 10.0 mi South 9.2 mph - N/A   Scattered Clouds
8:55 AM 33.8 °F 25.3 °F 26.6 °F 75% 30.20 in 10.0 mi South 11.5 mph 17.3 mph N/A   Scattered Clouds
9:15 AM 33.8 °F 27.0 °F 26.6 °F 75% 30.18 in 10.0 mi South 8.1 mph - N/A   Mostly Cloudy
9:35 AM 33.8 °F 25.3 °F 26.6 °F 75% 30.15 in 10.0 mi South 11.5 mph 18.4 mph N/A   Overcast
9:55 AM 35.6 °F 28.0 °F 28.4 °F 75% 30.14 in 10.0 mi South 10.4 mph 17.3 mph N/A   Mostly Cloudy
10:15 AM 37.4 °F 28.9 °F 28.4 °F 70% 30.13 in 10.0 mi South 13.8 mph 24.2 mph N/A   Clear
10:35 AM 37.4 °F 30.3 °F 28.4 °F 70% 30.12 in 10.0 mi South 10.4 mph 21.9 mph N/A   Clear
10:55 AM 37.4 °F 27.8 °F 28.4 °F 70% 30.12 in 10.0 mi South 17.3 mph 25.3 mph N/A   Clear
11:15 AM 39.2 °F 29.8 °F 28.4 °F 65% 30.11 in 10.0 mi South 18.4 mph 27.6 mph 0.01 in   Clear
11:35 AM 39.2 °F 29.6 °F 28.4 °F 65% 30.11 in 10.0 mi SSW 19.6 mph 24.2 mph 0.02 in   Clear
11:55 AM 39.2 °F 31.6 °F 30.2 °F 70% 30.09 in 10.0 mi South 12.7 mph 24.2 mph 0.01 in   Clear
12:15 PM 41.0 °F 34.3 °F 30.2 °F 65% 30.08 in 10.0 mi South 11.5 mph 19.6 mph 0.02 in   Clear
12:35 PM 42.8 °F 35.4 °F 30.2 °F 61% 30.07 in 10.0 mi South 15.0 mph 21.9 mph 0.04 in   Clear
12:55 PM 42.8 °F 34.8 °F 30.2 °F 61% 30.05 in 10.0 mi South 17.3 mph 25.3 mph 0.01 in   Clear
1:15 PM 42.8 °F 35.4 °F 30.2 °F 61% 30.04 in 10.0 mi South 15.0 mph 21.9 mph 0.04 in   Clear
1:35 PM 44.6 °F 39.2 °F 32.0 °F 61% 30.03 in 10.0 mi South 10.4 mph 23.0 mph 0.06 in   Clear
1:55 PM 44.6 °F 38.1 °F 32.0 °F 61% 30.02 in 10.0 mi South 13.8 mph 25.3 mph 0.01 in   Clear
2:15 PM 44.6 °F 38.8 °F 33.8 °F 66% 30.01 in 10.0 mi South 11.5 mph 23.0 mph 0.03 in   Clear
2:35 PM 44.6 °F 38.4 °F 33.8 °F 66% 30.00 in 10.0 mi South 12.7 mph 23.0 mph 0.03 in   Clear
2:55 PM 46.4 °F 39.5 °F 33.8 °F 62% 29.98 in 10.0 mi South 17.3 mph 24.2 mph N/A   Clear
3:15 PM 46.4 °F 40.4 °F 33.8 °F 62% 29.98 in 10.0 mi South 13.8 mph 25.3 mph N/A   Clear
3:35 PM 46.4 °F 39.8 °F 33.8 °F 62% 29.97 in 10.0 mi South 16.1 mph 24.2 mph N/A   Clear
3:55 PM 46.4 °F 40.4 °F 33.8 °F 62% 29.96 in 10.0 mi South 13.8 mph 19.6 mph N/A   Clear
4:15 PM 46.4 °F 40.7 °F 35.6 °F 66% 29.96 in 10.0 mi South 12.7 mph 21.9 mph N/A   Clear
4:35 PM 46.4 °F 40.7 °F 35.6 °F 66% 29.94 in 10.0 mi South 12.7 mph 18.4 mph N/A   Clear
4:55 PM 46.4 °F 40.1 °F 35.6 °F 66% 29.94 in 10.0 mi South 15.0 mph 20.7 mph N/A   Clear
5:15 PM 46.4 °F 41.1 °F 35.6 °F 66% 29.94 in 10.0 mi South 11.5 mph 21.9 mph N/A   Clear
5:35 PM 46.4 °F 42.4 °F 35.6 °F 66% 29.94 in 10.0 mi South 8.1 mph 20.7 mph N/A   Clear
5:55 PM 46.4 °F 40.4 °F 35.6 °F 66% 29.94 in 10.0 mi South 13.8 mph 19.6 mph N/A   Clear
6:15 PM 44.6 °F 39.2 °F 35.6 °F 71% 29.95 in 10.0 mi South 10.4 mph - N/A   Clear
6:35 PM 44.6 °F 40.2 °F 35.6 °F 71% 29.95 in 10.0 mi South 8.1 mph - N/A   Clear
6:55 PM 44.6 °F 40.7 °F 35.6 °F 71% 29.95 in 10.0 mi South 6.9 mph - N/A   Clear
7:15 PM 44.6 °F 40.7 °F 35.6 °F 71% 29.96 in 10.0 mi South 6.9 mph - N/A   Clear
7:55 PM 42.8 °F 38.6 °F 37.4 °F 81% 29.97 in 10.0 mi South 6.9 mph - N/A   Clear
8:15 PM 42.8 °F 37.5 °F 37.4 °F 81% 29.97 in 10.0 mi SSW 9.2 mph - N/A   Clear
8:35 PM 42.8 °F 38.0 °F 37.4 °F 81% 29.97 in 10.0 mi SSW 8.1 mph - N/A   Clear
9:15 PM 42.8 °F 38.0 °F 37.4 °F 81% 29.97 in 10.0 mi South 8.1 mph - N/A   Clear
9:35 PM 42.8 °F 38.6 °F 37.4 °F 81% 29.98 in 10.0 mi SSW 6.9 mph - N/A   Clear
9:55 PM 42.8 °F 41.1 °F 37.4 °F 81% 29.97 in 10.0 mi South 3.5 mph - N/A   Clear
10:15 PM 41.0 °F 39.0 °F 37.4 °F 87% 29.97 in 10.0 mi South 3.5 mph - N/A   Clear
10:35 PM 41.0 °F 39.0 °F 37.4 °F 87% 29.96 in 10.0 mi South 3.5 mph - N/A   Clear
10:55 PM 41.0 °F 39.0 °F 37.4 °F 87% 29.96 in 10.0 mi South 3.5 mph - N/A   Clear
11:15 PM 41.0 °F 39.0 °F 37.4 °F 87% 29.96 in 10.0 mi South 3.5 mph - N/A   Clear
11:35 PM 41.0 °F 39.0 °F 37.4 °F 87% 29.96 in 10.0 mi South 3.5 mph - N/A   Clear
11:55 PM 41.0 °F 39.0 °F 37.4 °F 87% 29.94 in 10.0 mi South 3.5 mph - N/A   Clear